RUK9NE EGSS-EGHQ

Flight info

Callsign RUK9NE
Flight time 0h 46m
Altitude 24000
Route NUGBO M183 SILVA Q41 SAM L620 DAWLY
Aircraft B38M/M-SADE3FGILRWY/SB1

Departure

Time 2026-04-26 09:18
Airport London Stansted Airport (EGSS)

Arrival

Time 2026-04-26 10:04
Airport Cornwall Airport Newquay (EGHQ)
Time Latitude Longitude Altitude Speed Heading
2026-04-26 08:30 51.89238 0.25958 361 ft 0 kts 42°
2026-04-26 09:04 51.89235 0.25954 355 ft 3 kts 38°
2026-04-26 09:04 51.89223 0.25936 357 ft 4 kts 34°
2026-04-26 09:04 51.89200 0.25924 360 ft 4 kts 349°
2026-04-26 09:05 51.89180 0.25942 359 ft 2 kts 313°
2026-04-26 09:05 51.89175 0.25949 355 ft 0 kts 313°
2026-04-26 09:10 51.89177 0.25947 358 ft 1 kts 313°
2026-04-26 09:10 51.89189 0.25925 355 ft 4 kts 313°
2026-04-26 09:10 51.89216 0.25880 358 ft 7 kts 313°
2026-04-26 09:11 51.89256 0.25810 358 ft 10 kts 313°
2026-04-26 09:11 51.89309 0.25718 355 ft 13 kts 313°
2026-04-26 09:11 51.89358 0.25591 358 ft 15 kts 270°
2026-04-26 09:11 51.89295 0.25454 356 ft 17 kts 223°
2026-04-26 09:12 51.89204 0.25314 363 ft 19 kts 223°
2026-04-26 09:12 51.89100 0.25158 357 ft 21 kts 222°
2026-04-26 09:12 51.88984 0.24988 360 ft 24 kts 222°
2026-04-26 09:12 51.88858 0.24798 355 ft 26 kts 224°
2026-04-26 09:13 51.88722 0.24589 354 ft 29 kts 223°
2026-04-26 09:13 51.88617 0.24435 356 ft 19 kts 221°
2026-04-26 09:13 51.88508 0.24273 351 ft 23 kts 224°
2026-04-26 09:13 51.88401 0.24110 354 ft 18 kts 223°
2026-04-26 09:14 51.88305 0.23966 351 ft 20 kts 223°
2026-04-26 09:14 51.88200 0.23810 346 ft 23 kts 222°
2026-04-26 09:14 51.88076 0.23627 343 ft 26 kts 223°
2026-04-26 09:14 51.87961 0.23453 343 ft 19 kts 223°
2026-04-26 09:15 51.87862 0.23303 350 ft 20 kts 223°
2026-04-26 09:15 51.87758 0.23147 346 ft 23 kts 226°
2026-04-26 09:15 51.87768 0.22963 347 ft 17 kts 293°
2026-04-26 09:15 51.87717 0.22791 337 ft 20 kts 223°
2026-04-26 09:16 51.87609 0.22630 337 ft 23 kts 222°
2026-04-26 09:16 51.87534 0.22411 328 ft 26 kts 293°
2026-04-26 09:16 51.87578 0.22327 325 ft 7 kts 317°
2026-04-26 09:16 51.87628 0.22276 325 ft 10 kts 344°
2026-04-26 09:17 51.87702 0.22287 327 ft 11 kts 29°
2026-04-26 09:17 51.87739 0.22340 329 ft 10 kts 44°
2026-04-26 09:17 51.87990 0.22719 335 ft 91 kts 43°
2026-04-26 09:17 51.88661 0.23731 364 ft 166 kts 44°
2026-04-26 09:18 51.89562 0.25130 1025 ft 187 kts 45°
2026-04-26 09:18 51.90471 0.26497 2089 ft 180 kts 45°
2026-04-26 09:18 51.91443 0.27964 2587 ft 201 kts 44°
2026-04-26 09:18 51.92619 0.29381 3152 ft 217 kts 27°
2026-04-26 09:19 51.94160 0.29955 3639 ft 247 kts 355°
2026-04-26 09:19 51.95663 0.28884 4930 ft 239 kts 321°
2026-04-26 09:19 51.96693 0.26666 5653 ft 259 kts 291°
2026-04-26 09:19 51.97069 0.23726 6412 ft 274 kts 281°
2026-04-26 09:20 51.97392 0.20672 7498 ft 275 kts 281°
2026-04-26 09:20 51.97732 0.17591 8498 ft 281 kts 281°
2026-04-26 09:20 51.98075 0.14454 9483 ft 285 kts 281°
2026-04-26 09:20 51.98423 0.11268 10437 ft 289 kts 281°
2026-04-26 09:21 51.98779 0.07986 11147 ft 304 kts 279°
2026-04-26 09:21 51.98742 0.04495 11730 ft 317 kts 258°
2026-04-26 09:21 51.98277 0.00969 12622 ft 322 kts 259°
2026-04-26 09:21 51.97833 -0.02602 13552 ft 324 kts 258°
2026-04-26 09:22 51.97379 -0.06195 14480 ft 326 kts 258°
2026-04-26 09:22 51.96919 -0.09810 15345 ft 330 kts 257°
2026-04-26 09:22 51.96440 -0.13462 16153 ft 334 kts 257°
2026-04-26 09:22 51.95957 -0.17166 16944 ft 337 kts 257°
2026-04-26 09:23 51.95471 -0.20898 17722 ft 341 kts 257°
2026-04-26 09:23 51.95143 -0.23399 18224 ft 343 kts 257°
2026-04-26 09:23 51.94644 -0.27194 18953 ft 346 kts 257°
2026-04-26 09:23 51.94140 -0.31024 19634 ft 350 kts 257°
2026-04-26 09:24 51.93629 -0.34899 20305 ft 353 kts 257°
2026-04-26 09:24 51.93113 -0.38801 20957 ft 356 kts 257°
2026-04-26 09:24 51.92591 -0.42739 21571 ft 360 kts 258°
2026-04-26 09:24 51.92061 -0.46726 22200 ft 363 kts 258°
2026-04-26 09:25 51.91529 -0.50708 22902 ft 362 kts 258°
2026-04-26 09:25 51.90999 -0.54674 23627 ft 360 kts 258°
2026-04-26 09:25 51.90467 -0.58644 24177 ft 363 kts 258°
2026-04-26 09:25 51.89932 -0.62621 24325 ft 363 kts 258°
2026-04-26 09:26 51.89383 -0.66693 24315 ft 378 kts 258°
2026-04-26 09:26 51.88810 -0.70930 24305 ft 392 kts 258°
2026-04-26 09:26 51.88214 -0.75318 24306 ft 406 kts 258°
2026-04-26 09:26 51.87599 -0.79843 24305 ft 418 kts 258°
2026-04-26 09:27 51.86967 -0.84477 24312 ft 426 kts 258°
2026-04-26 09:27 51.86323 -0.89191 24320 ft 429 kts 258°
2026-04-26 09:27 51.85507 -0.93826 24313 ft 430 kts 247°
2026-04-26 09:27 51.83872 -0.97858 24329 ft 432 kts 227°
2026-04-26 09:28 51.81469 -1.00775 24333 ft 437 kts 209°
2026-04-26 09:28 51.78569 -1.02303 24327 ft 443 kts 191°
2026-04-26 09:28 51.75503 -1.02953 24314 ft 444 kts 191°
2026-04-26 09:28 51.72446 -1.03719 24326 ft 445 kts 191°
2026-04-26 09:29 51.69388 -1.04499 24311 ft 444 kts 191°
2026-04-26 09:29 51.66336 -1.05280 24314 ft 445 kts 191°
2026-04-26 09:29 51.63283 -1.06062 24316 ft 445 kts 191°
2026-04-26 09:29 51.60271 -1.07093 24318 ft 442 kts 198°
2026-04-26 09:30 51.57305 -1.08412 24315 ft 442 kts 197°
2026-04-26 09:30 51.54372 -1.09662 24326 ft 443 kts 197°
2026-04-26 09:30 51.51350 -1.10922 24325 ft 443 kts 197°
2026-04-26 09:30 51.48364 -1.12161 24324 ft 443 kts 197°
2026-04-26 09:31 51.45389 -1.13438 24312 ft 443 kts 197°
2026-04-26 09:31 51.42451 -1.14695 24327 ft 443 kts 197°
2026-04-26 09:31 51.39475 -1.15965 24323 ft 443 kts 197°
2026-04-26 09:31 51.36504 -1.17230 24309 ft 443 kts 197°
2026-04-26 09:32 51.33525 -1.18496 24323 ft 443 kts 197°
2026-04-26 09:32 51.30506 -1.19779 24324 ft 443 kts 197°
2026-04-26 09:32 51.27570 -1.21024 24314 ft 443 kts 197°
2026-04-26 09:32 51.24587 -1.22287 24316 ft 443 kts 197°
2026-04-26 09:33 51.21607 -1.23547 24328 ft 443 kts 197°
2026-04-26 09:33 51.18632 -1.24804 24320 ft 443 kts 197°
2026-04-26 09:33 51.15651 -1.26061 24329 ft 443 kts 197°
2026-04-26 09:33 51.12677 -1.27313 24314 ft 443 kts 197°
2026-04-26 09:34 51.09713 -1.28560 24309 ft 443 kts 197°
2026-04-26 09:34 51.06712 -1.29821 24312 ft 443 kts 197°
2026-04-26 09:34 51.03735 -1.31070 24316 ft 443 kts 197°
2026-04-26 09:34 51.00753 -1.32327 24310 ft 443 kts 198°
2026-04-26 09:35 50.97965 -1.34284 24299 ft 437 kts 216°
2026-04-26 09:35 50.95757 -1.37534 24321 ft 433 kts 234°
2026-04-26 09:35 50.94337 -1.41701 24321 ft 431 kts 252°
2026-04-26 09:35 50.93549 -1.46282 24317 ft 431 kts 255°
2026-04-26 09:36 50.92758 -1.50834 24311 ft 431 kts 255°
2026-04-26 09:36 50.91967 -1.55414 24316 ft 431 kts 255°
2026-04-26 09:36 50.91176 -1.60010 24311 ft 431 kts 255°
2026-04-26 09:36 50.90386 -1.64597 24304 ft 431 kts 255°
2026-04-26 09:37 50.89595 -1.69179 24295 ft 431 kts 255°
2026-04-26 09:37 50.88803 -1.73762 24291 ft 431 kts 255°
2026-04-26 09:37 50.88010 -1.78334 24298 ft 431 kts 255°
2026-04-26 09:37 50.87214 -1.82914 24293 ft 431 kts 255°
2026-04-26 09:38 50.86419 -1.87472 24295 ft 431 kts 255°
2026-04-26 09:38 50.85633 -1.91972 24295 ft 432 kts 255°
2026-04-26 09:38 50.84833 -1.96547 24291 ft 431 kts 255°
2026-04-26 09:38 50.84030 -2.01116 24293 ft 432 kts 255°
2026-04-26 09:39 50.83224 -2.05688 24289 ft 431 kts 255°
2026-04-26 09:39 50.82422 -2.10245 24293 ft 431 kts 255°
2026-04-26 09:39 50.81613 -2.14805 24296 ft 431 kts 255°
2026-04-26 09:39 50.80900 -2.18835 24295 ft 431 kts 255°
2026-04-26 09:40 50.80207 -2.22727 24285 ft 431 kts 255°
2026-04-26 09:40 50.79452 -2.26965 24288 ft 431 kts 255°
2026-04-26 09:40 50.78637 -2.31519 24296 ft 431 kts 254°
2026-04-26 09:40 50.77831 -2.36016 24293 ft 431 kts 254°
2026-04-26 09:41 50.77001 -2.40640 24294 ft 431 kts 254°
2026-04-26 09:41 50.76194 -2.45121 24292 ft 431 kts 254°
2026-04-26 09:41 50.75372 -2.49674 24294 ft 431 kts 254°
2026-04-26 09:41 50.74660 -2.53609 24292 ft 431 kts 254°
2026-04-26 09:42 50.73868 -2.57978 24298 ft 431 kts 254°
2026-04-26 09:42 50.73071 -2.62362 24291 ft 431 kts 254°
2026-04-26 09:42 50.72298 -2.66603 24298 ft 431 kts 254°
2026-04-26 09:42 50.71494 -2.71009 24291 ft 431 kts 254°
2026-04-26 09:43 50.70729 -2.75183 24298 ft 431 kts 254°
2026-04-26 09:43 50.70067 -2.78795 24290 ft 429 kts 254°
2026-04-26 09:43 50.69370 -2.82589 23849 ft 422 kts 254°
2026-04-26 09:43 50.68633 -2.86582 24000 ft 423 kts 253°
2026-04-26 09:44 50.67924 -2.90425 23550 ft 428 kts 253°
2026-04-26 09:44 50.67296 -2.93817 23282 ft 431 kts 253°
2026-04-26 09:44 50.66610 -2.97525 22894 ft 432 kts 253°
2026-04-26 09:44 50.65908 -3.01305 22516 ft 433 kts 253°
2026-04-26 09:45 50.65060 -3.05863 22046 ft 433 kts 253°
2026-04-26 09:45 50.64327 -3.09791 21645 ft 431 kts 253°
2026-04-26 09:45 50.63666 -3.13328 21283 ft 428 kts 253°
2026-04-26 09:45 50.62999 -3.16890 20916 ft 420 kts 252°
2026-04-26 09:46 50.62197 -3.21167 20487 ft 411 kts 252°
2026-04-26 09:46 50.61447 -3.25155 20083 ft 404 kts 252°
2026-04-26 09:46 50.60660 -3.29329 19665 ft 396 kts 252°
2026-04-26 09:46 50.59896 -3.33377 19265 ft 389 kts 252°
2026-04-26 09:47 50.59127 -3.37432 18852 ft 383 kts 252°
2026-04-26 09:47 50.58377 -3.41391 18448 ft 377 kts 252°
2026-04-26 09:47 50.57637 -3.45310 18031 ft 372 kts 253°
2026-04-26 09:47 50.57310 -3.49332 17611 ft 370 kts 266°
2026-04-26 09:48 50.57204 -3.53328 17265 ft 363 kts 265°
2026-04-26 09:48 50.57078 -3.57265 16904 ft 358 kts 265°
2026-04-26 09:48 50.56951 -3.61151 16534 ft 354 kts 265°
2026-04-26 09:48 50.56825 -3.64994 16166 ft 350 kts 265°
2026-04-26 09:49 50.56698 -3.68795 15800 ft 346 kts 265°
2026-04-26 09:49 50.56572 -3.72549 15437 ft 342 kts 265°
2026-04-26 09:49 50.56446 -3.76271 15078 ft 338 kts 265°
2026-04-26 09:49 50.56320 -3.79940 14715 ft 335 kts 265°
2026-04-26 09:50 50.56194 -3.83579 14349 ft 332 kts 265°
2026-04-26 09:50 50.56069 -3.87181 14018 ft 328 kts 265°
2026-04-26 09:50 50.56003 -3.89033 13835 ft 327 kts 265°
2026-04-26 09:50 50.55878 -3.92583 13496 ft 324 kts 266°
2026-04-26 09:51 50.55753 -3.96095 13144 ft 321 kts 266°
2026-04-26 09:51 50.55628 -3.99584 12806 ft 317 kts 266°
2026-04-26 09:51 50.55503 -4.03030 12489 ft 313 kts 266°
2026-04-26 09:51 50.55378 -4.06435 12153 ft 311 kts 266°
2026-04-26 09:52 50.55253 -4.09814 11817 ft 309 kts 266°
2026-04-26 09:52 50.55003 -4.16505 11157 ft 304 kts 266°
2026-04-26 09:52 50.54879 -4.19807 10826 ft 302 kts 266°
2026-04-26 09:53 50.54755 -4.23085 10510 ft 300 kts 266°
2026-04-26 09:53 50.54630 -4.26345 10220 ft 296 kts 266°
2026-04-26 09:53 50.54506 -4.29564 9918 ft 294 kts 266°
2026-04-26 09:53 50.54382 -4.32757 9600 ft 293 kts 266°
2026-04-26 09:54 50.54257 -4.35953 9268 ft 292 kts 266°
2026-04-26 09:54 50.54131 -4.39151 8814 ft 295 kts 266°
2026-04-26 09:54 50.54003 -4.42379 8408 ft 296 kts 266°
2026-04-26 09:54 50.53887 -4.45600 8064 ft 294 kts 269°
2026-04-26 09:55 50.53930 -4.48798 7747 ft 292 kts 272°
2026-04-26 09:55 50.54012 -4.51979 7434 ft 290 kts 272°
2026-04-26 09:55 50.54092 -4.55089 7119 ft 288 kts 272°
2026-04-26 09:55 50.54172 -4.58215 6813 ft 286 kts 272°
2026-04-26 09:56 50.54256 -4.61325 6501 ft 284 kts 272°
2026-04-26 09:56 50.54349 -4.64456 6192 ft 282 kts 272°
2026-04-26 09:56 50.54445 -4.67481 5900 ft 280 kts 272°
2026-04-26 09:56 50.54543 -4.70567 5600 ft 278 kts 272°
2026-04-26 09:57 50.54640 -4.73551 5300 ft 276 kts 272°
2026-04-26 09:57 50.54740 -4.76559 5008 ft 275 kts 272°
2026-04-26 09:57 50.54841 -4.79547 4718 ft 273 kts 272°
2026-04-26 09:57 50.54944 -4.82525 4452 ft 271 kts 272°
2026-04-26 09:58 50.54962 -4.85449 4307 ft 264 kts 268°
2026-04-26 09:58 50.54913 -4.88105 4252 ft 252 kts 267°
2026-04-26 09:58 50.54863 -4.90796 4131 ft 243 kts 267°
2026-04-26 09:58 50.54816 -4.93404 3968 ft 234 kts 267°
2026-04-26 09:59 50.54749 -4.95908 3836 ft 225 kts 265°
2026-04-26 09:59 50.54692 -4.97494 3786 ft 212 kts 265°
2026-04-26 09:59 50.54597 -5.00107 3604 ft 194 kts 265°
2026-04-26 09:59 50.54531 -5.02000 3469 ft 182 kts 265°
2026-04-26 10:00 50.54429 -5.03962 3365 ft 180 kts 261°
2026-04-26 10:00 50.54272 -5.05973 3181 ft 189 kts 261°
2026-04-26 10:00 50.54020 -5.07916 2973 ft 191 kts 248°
2026-04-26 10:00 50.53430 -5.09740 2827 ft 190 kts 238°
2026-04-26 10:01 50.52791 -5.11557 2744 ft 190 kts 239°
2026-04-26 10:01 50.52005 -5.13087 2597 ft 185 kts 212°
2026-04-26 10:01 50.50853 -5.13670 2317 ft 173 kts 176°
2026-04-26 10:01 50.49805 -5.13068 2146 ft 158 kts 143°
2026-04-26 10:02 50.48968 -5.11943 1945 ft 158 kts 135°
2026-04-26 10:02 50.48287 -5.10649 1724 ft 149 kts 125°
2026-04-26 10:02 50.47746 -5.09301 1524 ft 144 kts 122°
2026-04-26 10:02 50.47239 -5.07947 1337 ft 144 kts 122°
2026-04-26 10:03 50.46731 -5.06592 1142 ft 144 kts 121°
2026-04-26 10:03 50.46223 -5.05242 951 ft 144 kts 122°
2026-04-26 10:03 50.45718 -5.03894 756 ft 143 kts 121°
2026-04-26 10:03 50.45211 -5.02548 570 ft 143 kts 122°
2026-04-26 10:04 50.44707 -5.01204 379 ft 143 kts 121°
2026-04-26 10:04 50.44262 -5.00016 346 ft 92 kts 120°
2026-04-26 10:04 50.44064 -4.99495 354 ft 20 kts 121°
2026-04-26 10:04 50.43984 -4.99297 360 ft 22 kts 122°
2026-04-26 10:05 50.43906 -4.99089 358 ft 23 kts 121°
2026-04-26 10:05 50.43824 -4.98874 366 ft 23 kts 121°
2026-04-26 10:05 50.43742 -4.98656 366 ft 23 kts 120°
2026-04-26 10:05 50.43672 -4.98446 374 ft 20 kts 113°
2026-04-26 10:06 50.43606 -4.98271 383 ft 17 kts 120°
2026-04-26 10:06 50.43549 -4.98120 389 ft 17 kts 120°
2026-04-26 10:06 50.43504 -4.97929 396 ft 21 kts 85°
2026-04-26 10:06 50.43631 -4.97892 395 ft 26 kts 327°
2026-04-26 10:07 50.43757 -4.98125 390 ft 20 kts 299°
2026-04-26 10:07 50.43812 -4.98284 386 ft 19 kts 300°
2026-04-26 10:07 50.43887 -4.98487 382 ft 24 kts 300°
2026-04-26 10:07 50.43982 -4.98739 376 ft 30 kts 300°
2026-04-26 10:08 50.44100 -4.99054 364 ft 37 kts 301°
2026-04-26 10:08 50.44214 -4.99350 361 ft 24 kts 301°
2026-04-26 10:08 50.44297 -4.99571 358 ft 25 kts 300°
2026-04-26 10:08 50.44376 -4.99783 350 ft 20 kts 300°
2026-04-26 10:09 50.44457 -4.99999 346 ft 25 kts 301°
2026-04-26 10:09 50.44520 -5.00166 343 ft 17 kts 301°
2026-04-26 10:09 50.44591 -5.00352 336 ft 14 kts 301°
2026-04-26 10:09 50.44631 -5.00436 336 ft 4 kts 339°
2026-04-26 10:10 50.44639 -5.00434 334 ft 0 kts 15°
2026-04-26 10:10 50.44642 -5.00431 335 ft 2 kts 33°
2026-04-26 10:10 50.44651 -5.00396 338 ft 3 kts 76°
2026-04-26 10:10 50.44653 -5.00380 338 ft 0 kts 81°